Year,Month,Day,Hour,Minute,Value (Times are PST for temperature in C)
2013,02,23,00,00,5.30
2013,02,23,00,01,5.30
2013,02,23,00,02,5.30
2013,02,23,00,03,5.30
2013,02,23,00,04,5.30
2013,02,23,00,05,5.30
2013,02,23,00,06,5.30
2013,02,23,00,07,5.30
2013,02,23,00,08,5.30
2013,02,23,00,09,5.30
2013,02,23,00,10,5.30
2013,02,23,00,11,5.30
2013,02,23,00,12,5.30
2013,02,23,00,13,5.20
2013,02,23,00,14,5.20
2013,02,23,00,15,5.20
2013,02,23,00,16,5.10
2013,02,23,00,17,5.10
2013,02,23,00,18,5.10
2013,02,23,00,19,5.10
2013,02,23,00,20,5.20
2013,02,23,00,21,5.20
2013,02,23,00,22,5.20
2013,02,23,00,23,5.30
2013,02,23,00,24,5.30
2013,02,23,00,25,5.30
2013,02,23,00,26,5.30
2013,02,23,00,27,5.30
2013,02,23,00,28,5.30
2013,02,23,00,29,5.30
2013,02,23,00,30,5.30
2013,02,23,00,31,5.20
2013,02,23,00,32,5.20
2013,02,23,00,33,5.20
2013,02,23,00,34,5.10
2013,02,23,00,35,5.10
2013,02,23,00,36,5.10
2013,02,23,00,37,5.00
2013,02,23,00,38,5.00
2013,02,23,00,39,4.90
2013,02,23,00,40,4.90
2013,02,23,00,41,4.90
2013,02,23,00,42,4.90
2013,02,23,00,43,4.90
2013,02,23,00,44,4.90
2013,02,23,00,45,4.90
2013,02,23,00,46,4.90
2013,02,23,00,47,4.90
2013,02,23,00,48,4.90
2013,02,23,00,49,4.90
2013,02,23,00,50,5.00
2013,02,23,00,51,5.00
2013,02,23,00,52,5.00
2013,02,23,00,53,5.00
2013,02,23,00,54,5.00
2013,02,23,00,55,5.00
2013,02,23,00,56,5.00
2013,02,23,00,57,4.90
2013,02,23,00,58,5.00
2013,02,23,00,59,5.00
2013,02,23,01,00,5.10
2013,02,23,01,01,5.20
2013,02,23,01,02,5.30
2013,02,23,01,03,5.40
2013,02,23,01,04,5.60
2013,02,23,01,05,5.60
2013,02,23,01,06,5.70
2013,02,23,01,07,5.80
2013,02,23,01,08,5.90
2013,02,23,01,09,6.00
2013,02,23,01,10,6.00
2013,02,23,01,11,6.10
2013,02,23,01,12,6.10
2013,02,23,01,13,6.10
2013,02,23,01,14,6.10
2013,02,23,01,15,6.20
2013,02,23,01,16,6.30
2013,02,23,01,17,6.30
2013,02,23,01,18,6.40
2013,02,23,01,19,6.40
2013,02,23,01,20,6.40
2013,02,23,01,21,6.40
2013,02,23,01,22,6.40
2013,02,23,01,23,6.40
2013,02,23,01,24,6.30
2013,02,23,01,25,6.20
2013,02,23,01,26,6.00
2013,02,23,01,27,5.90
2013,02,23,01,28,5.80
2013,02,23,01,29,5.70
2013,02,23,01,30,5.60
2013,02,23,01,31,5.40
2013,02,23,01,32,5.30
2013,02,23,01,33,5.20
2013,02,23,01,34,5.10
2013,02,23,01,35,5.10
2013,02,23,01,36,5.00
2013,02,23,01,37,4.90
2013,02,23,01,38,4.90
2013,02,23,01,39,4.80
2013,02,23,01,40,4.80
2013,02,23,01,41,4.70
2013,02,23,01,42,4.60
2013,02,23,01,43,4.60
2013,02,23,01,44,4.50
2013,02,23,01,45,4.40
2013,02,23,01,46,4.40
2013,02,23,01,47,4.40
2013,02,23,01,48,4.30
2013,02,23,01,49,4.30
2013,02,23,01,50,4.30
2013,02,23,01,51,4.20
2013,02,23,01,52,4.20
2013,02,23,01,53,4.20
2013,02,23,01,54,4.10
2013,02,23,01,55,4.10
2013,02,23,01,56,4.00
2013,02,23,01,57,4.00
2013,02,23,01,58,3.90
2013,02,23,01,59,3.90
2013,02,23,02,00,3.90
2013,02,23,02,01,3.90
2013,02,23,02,02,3.80
2013,02,23,02,03,3.80
2013,02,23,02,04,3.80
2013,02,23,02,05,3.80
2013,02,23,02,06,3.80
2013,02,23,02,07,3.70
2013,02,23,02,08,3.80
2013,02,23,02,09,3.80
2013,02,23,02,10,3.80
2013,02,23,02,11,3.80
2013,02,23,02,12,3.80
2013,02,23,02,13,3.80
2013,02,23,02,14,3.80
2013,02,23,02,15,3.80
2013,02,23,02,16,3.80
2013,02,23,02,17,3.70
2013,02,23,02,18,3.70
2013,02,23,02,19,3.70
2013,02,23,02,20,3.70
2013,02,23,02,21,3.70
2013,02,23,02,22,3.60
2013,02,23,02,23,3.60
2013,02,23,02,24,3.60
2013,02,23,02,25,3.60
2013,02,23,02,26,3.60
2013,02,23,02,27,3.60
2013,02,23,02,28,3.60
2013,02,23,02,29,3.50
2013,02,23,02,30,3.60
2013,02,23,02,31,3.60
2013,02,23,02,32,3.60
2013,02,23,02,33,3.60
2013,02,23,02,34,3.60
2013,02,23,02,35,3.60
2013,02,23,02,36,3.60
2013,02,23,02,37,3.60
2013,02,23,02,38,3.60
2013,02,23,02,39,3.60
2013,02,23,02,40,3.60
2013,02,23,02,41,3.60
2013,02,23,02,42,3.60
2013,02,23,02,43,3.60
2013,02,23,02,44,3.60
2013,02,23,02,45,3.60
2013,02,23,02,46,3.60
2013,02,23,02,47,3.50
2013,02,23,02,48,3.50
2013,02,23,02,49,3.40
2013,02,23,02,50,3.40
2013,02,23,02,51,3.40
2013,02,23,02,52,3.40
2013,02,23,02,53,3.40
2013,02,23,02,54,3.30
2013,02,23,02,55,3.20
2013,02,23,02,56,3.20
2013,02,23,02,57,3.10
2013,02,23,02,58,3.10
2013,02,23,02,59,3.00
2013,02,23,03,00,2.90
2013,02,23,03,01,2.90
2013,02,23,03,02,2.80
2013,02,23,03,03,2.80
2013,02,23,03,04,2.70
2013,02,23,03,05,2.70
2013,02,23,03,06,2.60
2013,02,23,03,07,2.60
2013,02,23,03,08,2.60
2013,02,23,03,09,2.50
2013,02,23,03,10,2.40
2013,02,23,03,11,2.40
2013,02,23,03,12,2.40
2013,02,23,03,13,2.40
2013,02,23,03,14,2.30
2013,02,23,03,15,2.30
2013,02,23,03,16,2.30
2013,02,23,03,17,2.30
2013,02,23,03,18,2.30
2013,02,23,03,19,2.30
2013,02,23,03,20,2.30
2013,02,23,03,21,2.20
2013,02,23,03,22,2.20
2013,02,23,03,23,2.20
2013,02,23,03,24,2.10
2013,02,23,03,25,2.10
2013,02,23,03,26,2.10
2013,02,23,03,27,2.10
2013,02,23,03,28,2.10
2013,02,23,03,29,2.10
2013,02,23,03,30,2.00
2013,02,23,03,31,2.00
2013,02,23,03,32,2.00
2013,02,23,03,33,2.00
2013,02,23,03,34,2.00
2013,02,23,03,35,2.00
2013,02,23,03,36,2.00
2013,02,23,03,37,2.00
2013,02,23,03,38,2.00
2013,02,23,03,39,2.10
2013,02,23,03,40,2.10
2013,02,23,03,41,2.10
2013,02,23,03,42,2.10
2013,02,23,03,43,2.10
2013,02,23,03,44,2.20
2013,02,23,03,45,2.20
2013,02,23,03,46,2.20
2013,02,23,03,47,2.20
2013,02,23,03,48,2.20
2013,02,23,03,49,2.20
2013,02,23,03,50,2.20
2013,02,23,03,51,2.20
2013,02,23,03,52,2.20
2013,02,23,03,53,2.10
2013,02,23,03,54,2.10
2013,02,23,03,55,2.00
2013,02,23,03,56,1.90
2013,02,23,03,57,1.90
2013,02,23,03,58,1.80
2013,02,23,03,59,1.80
2013,02,23,04,00,1.70
2013,02,23,04,01,1.70
2013,02,23,04,02,1.60
2013,02,23,04,03,1.60
2013,02,23,04,04,1.50
2013,02,23,04,05,1.50
2013,02,23,04,06,1.50
2013,02,23,04,07,1.50
2013,02,23,04,08,1.50
2013,02,23,04,09,1.60
2013,02,23,04,10,1.60
2013,02,23,04,11,1.60
2013,02,23,04,12,1.60
2013,02,23,04,13,1.60
2013,02,23,04,14,1.60
2013,02,23,04,15,1.60
2013,02,23,04,16,1.60
2013,02,23,04,17,1.60
2013,02,23,04,18,1.60
2013,02,23,04,19,1.60
2013,02,23,04,20,1.70
2013,02,23,04,21,1.80
2013,02,23,04,22,1.80
2013,02,23,04,23,1.80
2013,02,23,04,24,1.80
2013,02,23,04,25,1.80
2013,02,23,04,26,1.80
2013,02,23,04,27,1.80
2013,02,23,04,28,1.80
2013,02,23,04,29,1.90
2013,02,23,04,30,2.00
2013,02,23,04,31,2.00
2013,02,23,04,32,2.10
2013,02,23,04,33,2.20
2013,02,23,04,34,2.20
2013,02,23,04,35,2.20
2013,02,23,04,36,2.30
2013,02,23,04,37,2.30
2013,02,23,04,38,2.30
2013,02,23,04,39,2.30
2013,02,23,04,40,2.20
2013,02,23,04,41,2.20
2013,02,23,04,42,2.20
2013,02,23,04,43,2.20
2013,02,23,04,44,2.20
2013,02,23,04,45,2.20
2013,02,23,04,46,2.20
2013,02,23,04,47,2.10
2013,02,23,04,48,2.10
2013,02,23,04,49,2.00
2013,02,23,04,50,2.00
2013,02,23,04,51,1.90
2013,02,23,04,52,1.80
2013,02,23,04,53,1.80
2013,02,23,04,54,1.70
2013,02,23,04,55,1.70
2013,02,23,04,56,1.70
2013,02,23,04,57,1.70
2013,02,23,04,58,1.60
2013,02,23,04,59,1.60
2013,02,23,05,00,1.60
2013,02,23,05,01,1.60
2013,02,23,05,02,1.60
2013,02,23,05,03,1.70
2013,02,23,05,04,1.80
2013,02,23,05,05,1.80
2013,02,23,05,06,1.90
2013,02,23,05,07,1.90
2013,02,23,05,08,1.90
2013,02,23,05,09,1.90
2013,02,23,05,10,1.90
2013,02,23,05,11,1.90
2013,02,23,05,12,1.90
2013,02,23,05,13,1.90
2013,02,23,05,14,1.90
2013,02,23,05,15,1.90
2013,02,23,05,16,1.80
2013,02,23,05,17,1.80
2013,02,23,05,18,1.80
2013,02,23,05,19,1.80
2013,02,23,05,20,1.80
2013,02,23,05,21,1.80
2013,02,23,05,22,1.80
2013,02,23,05,23,1.80
2013,02,23,05,24,1.80
2013,02,23,05,25,1.80
2013,02,23,05,26,1.80
2013,02,23,05,27,1.80
2013,02,23,05,28,1.80
2013,02,23,05,29,1.80
2013,02,23,05,30,1.80
2013,02,23,05,31,1.80
2013,02,23,05,32,1.80
2013,02,23,05,33,1.70
2013,02,23,05,34,1.70
2013,02,23,05,35,1.70
2013,02,23,05,36,1.70
2013,02,23,05,37,1.60
2013,02,23,05,38,1.60
2013,02,23,05,39,1.60
2013,02,23,05,40,1.60
2013,02,23,05,41,1.60
2013,02,23,05,42,1.60
2013,02,23,05,43,1.60
2013,02,23,05,44,1.60
2013,02,23,05,45,1.70
2013,02,23,05,46,1.70
2013,02,23,05,47,1.60
2013,02,23,05,48,1.60
2013,02,23,05,49,1.60
2013,02,23,05,50,1.50
2013,02,23,05,51,1.50
2013,02,23,05,52,1.40
2013,02,23,05,53,1.40
2013,02,23,05,54,1.40
2013,02,23,05,55,1.40
2013,02,23,05,56,1.40
2013,02,23,05,57,1.30
2013,02,23,05,58,1.30
2013,02,23,05,59,1.30
2013,02,23,06,00,1.30
2013,02,23,06,01,1.30
2013,02,23,06,02,1.20
2013,02,23,06,03,1.20
2013,02,23,06,04,1.20
2013,02,23,06,05,1.20
2013,02,23,06,06,1.20
2013,02,23,06,07,1.20
2013,02,23,06,08,1.20
2013,02,23,06,09,1.20
2013,02,23,06,10,1.20
2013,02,23,06,11,1.20
2013,02,23,06,12,1.20
2013,02,23,06,13,1.20
2013,02,23,06,14,1.20
2013,02,23,06,15,1.20
2013,02,23,06,16,1.20
2013,02,23,06,17,1.20
2013,02,23,06,18,1.20
2013,02,23,06,19,1.20
2013,02,23,06,20,1.20
2013,02,23,06,21,1.20
2013,02,23,06,22,1.20
2013,02,23,06,23,1.20
2013,02,23,06,24,1.20
2013,02,23,06,25,1.10
2013,02,23,06,26,1.10
2013,02,23,06,27,1.10
2013,02,23,06,28,1.10
2013,02,23,06,29,1.10
2013,02,23,06,30,1.00
2013,02,23,06,31,1.00
2013,02,23,06,32,1.00
2013,02,23,06,33,1.00
2013,02,23,06,34,1.00
2013,02,23,06,35,1.00
2013,02,23,06,36,1.00
2013,02,23,06,37,1.00
2013,02,23,06,38,1.00
2013,02,23,06,39,1.00
2013,02,23,06,40,1.00
2013,02,23,06,41,1.00
2013,02,23,06,42,0.90
2013,02,23,06,43,1.00
2013,02,23,06,44,1.00
2013,02,23,06,45,1.00
2013,02,23,06,46,1.10
2013,02,23,06,47,1.10
2013,02,23,06,48,1.10
2013,02,23,06,49,1.10
2013,02,23,06,50,1.10
2013,02,23,06,51,1.10
2013,02,23,06,52,1.20
2013,02,23,06,53,1.20
2013,02,23,06,54,1.10
2013,02,23,06,55,1.10
2013,02,23,06,56,1.10
2013,02,23,06,57,1.10
2013,02,23,06,58,1.20
2013,02,23,06,59,1.20
2013,02,23,07,00,1.20
2013,02,23,07,01,1.20
2013,02,23,07,02,1.20
2013,02,23,07,03,1.20
2013,02,23,07,04,1.30
2013,02,23,07,05,1.30
2013,02,23,07,06,1.30
2013,02,23,07,07,1.30
2013,02,23,07,08,1.30
2013,02,23,07,09,1.30
2013,02,23,07,10,1.30
2013,02,23,07,11,1.30
2013,02,23,07,12,1.30
2013,02,23,07,13,1.30
2013,02,23,07,14,1.30
2013,02,23,07,15,1.20
2013,02,23,07,16,1.20
2013,02,23,07,17,1.30
2013,02,23,07,18,1.30
2013,02,23,07,19,1.30
2013,02,23,07,20,1.30
2013,02,23,07,21,1.30
2013,02,23,07,22,1.30
2013,02,23,07,23,1.30
2013,02,23,07,24,1.30
2013,02,23,07,25,1.30
2013,02,23,07,26,1.30
2013,02,23,07,27,1.30
2013,02,23,07,28,1.30
2013,02,23,07,29,1.40
2013,02,23,07,30,1.40
2013,02,23,07,31,1.40
2013,02,23,07,32,1.40
2013,02,23,07,33,1.50
2013,02,23,07,34,1.50
2013,02,23,07,35,1.50
2013,02,23,07,36,1.60
2013,02,23,07,37,1.60
2013,02,23,07,38,1.70
2013,02,23,07,39,1.70
2013,02,23,07,40,1.80
2013,02,23,07,41,1.80
2013,02,23,07,42,1.80
2013,02,23,07,43,1.90
2013,02,23,07,44,1.90
2013,02,23,07,45,2.00
2013,02,23,07,46,2.00
2013,02,23,07,47,2.00
2013,02,23,07,48,2.10
2013,02,23,07,49,2.10
2013,02,23,07,50,2.10
2013,02,23,07,51,2.20
2013,02,23,07,52,2.20
2013,02,23,07,53,2.20
2013,02,23,07,54,2.20
2013,02,23,07,55,2.30
2013,02,23,07,56,2.30
2013,02,23,07,57,2.30
2013,02,23,07,58,2.40
2013,02,23,07,59,2.40
2013,02,23,08,00,2.50
2013,02,23,08,01,2.60
2013,02,23,08,02,2.60
2013,02,23,08,03,2.70
2013,02,23,08,04,2.80
2013,02,23,08,05,2.80
2013,02,23,08,06,2.90
2013,02,23,08,07,2.90
2013,02,23,08,08,3.00
2013,02,23,08,09,3.10
2013,02,23,08,10,3.10
2013,02,23,08,11,3.20
2013,02,23,08,12,3.20
2013,02,23,08,13,3.30
2013,02,23,08,14,3.40
2013,02,23,08,15,3.50
2013,02,23,08,16,3.60
2013,02,23,08,17,3.70
2013,02,23,08,18,3.80
2013,02,23,08,19,3.90
2013,02,23,08,20,4.00
2013,02,23,08,21,4.10
2013,02,23,08,22,4.10
2013,02,23,08,23,4.20
2013,02,23,08,24,4.30
2013,02,23,08,25,4.30
2013,02,23,08,26,4.40
2013,02,23,08,27,4.50
2013,02,23,08,28,4.50
2013,02,23,08,29,4.60
2013,02,23,08,30,4.70
2013,02,23,08,31,4.70
2013,02,23,08,32,4.80
2013,02,23,08,33,4.80
2013,02,23,08,34,4.90
2013,02,23,08,35,4.90
2013,02,23,08,36,5.00
2013,02,23,08,37,5.00
2013,02,23,08,38,5.10
2013,02,23,08,39,5.10
2013,02,23,08,40,5.20
2013,02,23,08,41,5.20
2013,02,23,08,42,5.20
2013,02,23,08,43,5.30
2013,02,23,08,44,5.40
2013,02,23,08,45,5.40
2013,02,23,08,46,5.40
2013,02,23,08,47,5.50
2013,02,23,08,48,5.50
2013,02,23,08,49,5.60
2013,02,23,08,50,5.60
2013,02,23,08,51,5.70
2013,02,23,08,52,5.70
2013,02,23,08,53,5.80
2013,02,23,08,54,5.80
2013,02,23,08,55,5.80
2013,02,23,08,56,5.90
2013,02,23,08,57,5.90
2013,02,23,08,58,5.90
2013,02,23,08,59,6.00
2013,02,23,09,00,6.00
2013,02,23,09,01,6.00
2013,02,23,09,02,6.10
2013,02,23,09,03,6.10
2013,02,23,09,04,6.10
2013,02,23,09,05,6.10
2013,02,23,09,06,6.20
2013,02,23,09,07,6.20
2013,02,23,09,08,6.20
2013,02,23,09,09,6.30
2013,02,23,09,10,6.30
2013,02,23,09,11,6.30
2013,02,23,09,12,6.40
2013,02,23,09,13,6.40
2013,02,23,09,14,6.40
2013,02,23,09,15,6.50
2013,02,23,09,16,6.50
2013,02,23,09,17,6.50
2013,02,23,09,18,6.50
2013,02,23,09,19,6.60
2013,02,23,09,20,6.60
2013,02,23,09,21,6.60
2013,02,23,09,22,6.60
2013,02,23,09,23,6.70
2013,02,23,09,24,6.70
2013,02,23,09,25,6.80
2013,02,23,09,26,6.80
2013,02,23,09,27,6.80
2013,02,23,09,28,6.80
2013,02,23,09,29,6.80
2013,02,23,09,30,6.80
2013,02,23,09,31,6.80
2013,02,23,09,32,6.80
2013,02,23,09,33,6.90
2013,02,23,09,34,6.90
2013,02,23,09,35,6.90
2013,02,23,09,36,6.90
2013,02,23,09,37,6.90
2013,02,23,09,38,7.00
2013,02,23,09,39,7.00
2013,02,23,09,40,7.10
2013,02,23,09,41,7.10
2013,02,23,09,42,7.10
2013,02,23,09,43,7.10
2013,02,23,09,44,7.10
2013,02,23,09,45,7.10
2013,02,23,09,46,7.10
2013,02,23,09,47,7.10
2013,02,23,09,48,7.10
2013,02,23,09,49,7.20
2013,02,23,09,50,7.20
2013,02,23,09,51,7.20
2013,02,23,09,52,7.20
2013,02,23,09,53,7.20
2013,02,23,09,54,7.30
2013,02,23,09,55,7.30
2013,02,23,09,56,7.30
2013,02,23,09,57,7.30
2013,02,23,09,58,7.30
2013,02,23,09,59,7.40
2013,02,23,10,00,7.40
2013,02,23,10,01,7.40
2013,02,23,10,02,7.50
2013,02,23,10,03,7.50
2013,02,23,10,04,7.50
2013,02,23,10,05,7.60
2013,02,23,10,06,7.60
2013,02,23,10,07,7.60
2013,02,23,10,08,7.60
2013,02,23,10,09,7.60
2013,02,23,10,10,7.60
2013,02,23,10,11,7.60
2013,02,23,10,12,7.60
2013,02,23,10,13,7.60
2013,02,23,10,14,7.60
2013,02,23,10,15,7.60
2013,02,23,10,16,7.60
2013,02,23,10,17,7.60
2013,02,23,10,18,7.60
2013,02,23,10,19,7.70
2013,02,23,10,20,7.70
2013,02,23,10,21,7.80
2013,02,23,10,22,7.80
2013,02,23,10,23,7.80
2013,02,23,10,24,7.80
2013,02,23,10,25,7.90
2013,02,23,10,26,7.90
2013,02,23,10,27,8.00
2013,02,23,10,28,8.00
2013,02,23,10,29,8.00
2013,02,23,10,30,8.00
2013,02,23,10,31,8.00
2013,02,23,10,32,7.90
2013,02,23,10,33,7.90
2013,02,23,10,34,7.90
2013,02,23,10,35,8.00
2013,02,23,10,36,8.00
2013,02,23,10,37,8.10
2013,02,23,10,38,8.10
2013,02,23,10,39,8.10
2013,02,23,10,40,8.10
2013,02,23,10,41,8.10
2013,02,23,10,42,8.00
2013,02,23,10,43,8.10
2013,02,23,10,44,8.10
2013,02,23,10,45,8.10
2013,02,23,10,46,8.20
2013,02,23,10,47,8.30
2013,02,23,10,48,8.30
2013,02,23,10,49,8.40
2013,02,23,10,50,8.40
2013,02,23,10,51,8.40
2013,02,23,10,52,8.50
2013,02,23,10,53,8.40
2013,02,23,10,54,8.50
2013,02,23,10,55,8.40
2013,02,23,10,56,8.40
2013,02,23,10,57,8.40
2013,02,23,10,58,8.40
2013,02,23,10,59,8.40
2013,02,23,11,00,8.40
2013,02,23,11,01,8.50
2013,02,23,11,02,8.50
2013,02,23,11,03,8.40
2013,02,23,11,04,8.40
2013,02,23,11,05,8.40
2013,02,23,11,06,8.40
2013,02,23,11,07,8.30
2013,02,23,11,08,8.30
2013,02,23,11,09,8.20
2013,02,23,11,10,8.20
2013,02,23,11,11,8.20
2013,02,23,11,12,8.10
2013,02,23,11,13,8.10
2013,02,23,11,14,8.10
2013,02,23,11,15,8.10
2013,02,23,11,16,8.20
2013,02,23,11,17,8.20
2013,02,23,11,18,8.20
2013,02,23,11,19,8.20
2013,02,23,11,20,8.30
2013,02,23,11,21,8.30
2013,02,23,11,22,8.30
2013,02,23,11,23,8.30
2013,02,23,11,24,8.30
2013,02,23,11,25,8.30
2013,02,23,11,26,8.30
2013,02,23,11,27,8.40
2013,02,23,11,28,8.40
2013,02,23,11,29,8.30
2013,02,23,11,30,8.30
2013,02,23,11,31,8.30
2013,02,23,11,32,8.30
2013,02,23,11,33,8.30
2013,02,23,11,34,8.20
2013,02,23,11,35,8.20
2013,02,23,11,36,8.10
2013,02,23,11,37,8.20
2013,02,23,11,38,8.20
2013,02,23,11,39,8.20
2013,02,23,11,40,8.20
2013,02,23,11,41,8.20
2013,02,23,11,42,8.20
2013,02,23,11,43,8.20
2013,02,23,11,44,8.20
2013,02,23,11,45,8.20
2013,02,23,11,46,8.20
2013,02,23,11,47,8.20
2013,02,23,11,48,8.20
2013,02,23,11,49,8.20
2013,02,23,11,50,8.20
2013,02,23,11,51,8.20
2013,02,23,11,52,8.20
2013,02,23,11,53,8.20
2013,02,23,11,54,8.20
2013,02,23,11,55,8.20
2013,02,23,11,56,8.20
2013,02,23,11,57,8.20
2013,02,23,11,58,8.20
2013,02,23,11,59,8.20
2013,02,23,12,00,8.20
2013,02,23,12,01,8.20
2013,02,23,12,02,8.30
2013,02,23,12,03,8.30
2013,02,23,12,04,8.30
2013,02,23,12,05,8.30
2013,02,23,12,06,8.30
2013,02,23,12,07,8.40
2013,02,23,12,08,8.40
2013,02,23,12,09,8.50
2013,02,23,12,10,8.50
2013,02,23,12,11,8.50
2013,02,23,12,12,8.50
2013,02,23,12,13,8.50
2013,02,23,12,14,8.50
2013,02,23,12,15,8.50
2013,02,23,12,16,8.50
2013,02,23,12,17,8.50
2013,02,23,12,18,8.50
2013,02,23,12,19,8.60
2013,02,23,12,20,8.60
2013,02,23,12,21,8.60
2013,02,23,12,22,8.60
2013,02,23,12,23,8.60
2013,02,23,12,24,8.60
2013,02,23,12,25,8.70
2013,02,23,12,26,8.70
2013,02,23,12,27,8.70
2013,02,23,12,28,8.70
2013,02,23,12,29,8.70
2013,02,23,12,30,8.80
2013,02,23,12,31,8.80
2013,02,23,12,32,8.80
2013,02,23,12,33,8.80
2013,02,23,12,34,8.80
2013,02,23,12,35,8.80
2013,02,23,12,36,8.80
2013,02,23,12,37,8.80
2013,02,23,12,38,8.80
2013,02,23,12,39,8.80
2013,02,23,12,40,8.80
2013,02,23,12,41,8.80
2013,02,23,12,42,8.70
2013,02,23,12,43,8.70
2013,02,23,12,44,8.70
2013,02,23,12,45,8.70
2013,02,23,12,46,8.70
2013,02,23,12,47,8.80
2013,02,23,12,48,8.70
2013,02,23,12,49,8.70
2013,02,23,12,50,8.70
2013,02,23,12,51,8.70
2013,02,23,12,52,8.80
2013,02,23,12,53,8.80
2013,02,23,12,54,8.80
2013,02,23,12,55,8.90
2013,02,23,12,56,8.90
2013,02,23,12,57,8.90
2013,02,23,12,58,8.90
2013,02,23,12,59,8.90
2013,02,23,13,00,8.90
2013,02,23,13,01,8.90
2013,02,23,13,02,9.00
2013,02,23,13,03,9.00
2013,02,23,13,04,9.00
2013,02,23,13,05,9.00
2013,02,23,13,06,9.10
2013,02,23,13,07,9.10
2013,02,23,13,08,9.10
2013,02,23,13,09,9.10
2013,02,23,13,10,9.10
2013,02,23,13,11,9.10
2013,02,23,13,12,9.10
2013,02,23,13,13,9.10
2013,02,23,13,14,9.10
2013,02,23,13,15,9.00
2013,02,23,13,16,9.00
2013,02,23,13,17,9.00
2013,02,23,13,18,9.00
2013,02,23,13,19,9.00
2013,02,23,13,20,9.10
2013,02,23,13,21,9.10
2013,02,23,13,22,9.10
2013,02,23,13,23,9.10
2013,02,23,13,24,9.20
2013,02,23,13,25,9.10
2013,02,23,13,26,9.10
2013,02,23,13,27,9.10
2013,02,23,13,28,9.10
2013,02,23,13,29,9.10
2013,02,23,13,30,9.10
2013,02,23,13,31,9.00
2013,02,23,13,32,9.10
2013,02,23,13,33,9.10
2013,02,23,13,34,9.10
2013,02,23,13,35,9.00
2013,02,23,13,36,9.00
2013,02,23,13,37,9.00
2013,02,23,13,38,9.00
2013,02,23,13,39,9.00
2013,02,23,13,40,9.00
2013,02,23,13,41,9.10
2013,02,23,13,42,9.10
2013,02,23,13,43,9.10
2013,02,23,13,44,9.10
2013,02,23,13,45,9.10
2013,02,23,13,46,9.10
2013,02,23,13,47,9.10
2013,02,23,13,48,9.10
2013,02,23,13,49,9.10
2013,02,23,13,50,9.10
2013,02,23,13,51,9.10
2013,02,23,13,52,9.10
2013,02,23,13,53,9.10
2013,02,23,13,54,9.10
2013,02,23,13,55,9.10
2013,02,23,13,56,9.20
2013,02,23,13,57,9.20
2013,02,23,13,58,9.20
2013,02,23,13,59,9.30
2013,02,23,14,00,9.30
2013,02,23,14,01,9.30
2013,02,23,14,02,9.20
2013,02,23,14,03,9.20
2013,02,23,14,04,9.10
2013,02,23,14,05,9.10
2013,02,23,14,06,9.10
2013,02,23,14,07,9.00
2013,02,23,14,08,9.00
2013,02,23,14,09,9.00
2013,02,23,14,10,9.00
2013,02,23,14,11,9.00
2013,02,23,14,12,9.00
2013,02,23,14,13,9.00
2013,02,23,14,14,9.00
2013,02,23,14,15,9.00
2013,02,23,14,16,9.00
2013,02,23,14,17,9.10
2013,02,23,14,18,9.10
2013,02,23,14,19,9.20
2013,02,23,14,20,9.30
2013,02,23,14,21,9.30
2013,02,23,14,22,9.20
2013,02,23,14,23,9.20
2013,02,23,14,24,9.20
2013,02,23,14,25,9.20
2013,02,23,14,26,9.20
2013,02,23,14,27,9.20
2013,02,23,14,28,9.10
2013,02,23,14,29,9.10
2013,02,23,14,30,9.00
2013,02,23,14,31,9.00
2013,02,23,14,32,8.90
2013,02,23,14,33,8.90
2013,02,23,14,34,8.90
2013,02,23,14,35,8.90
2013,02,23,14,36,8.90
2013,02,23,14,37,8.90
2013,02,23,14,38,8.90
2013,02,23,14,39,8.90
2013,02,23,14,40,8.90
2013,02,23,14,41,8.90
2013,02,23,14,42,8.90
2013,02,23,14,43,8.90
2013,02,23,14,44,8.80
2013,02,23,14,45,8.80
2013,02,23,14,46,8.80
2013,02,23,14,47,8.80
2013,02,23,14,48,8.70
2013,02,23,14,49,8.70
2013,02,23,14,50,8.70
2013,02,23,14,51,8.70
2013,02,23,14,52,8.70
2013,02,23,14,53,8.70
2013,02,23,14,54,8.70
2013,02,23,14,55,8.70
2013,02,23,14,56,8.60
2013,02,23,14,57,8.60
2013,02,23,14,58,8.60
2013,02,23,14,59,8.60
2013,02,23,15,00,8.60
2013,02,23,15,01,8.60
2013,02,23,15,02,8.60
2013,02,23,15,03,8.70
2013,02,23,15,04,8.70
2013,02,23,15,05,8.70
2013,02,23,15,06,8.70
2013,02,23,15,07,8.80
2013,02,23,15,08,8.80
2013,02,23,15,09,8.70
2013,02,23,15,10,8.70
2013,02,23,15,11,8.70
2013,02,23,15,12,8.70
2013,02,23,15,13,8.70
2013,02,23,15,14,8.70
2013,02,23,15,15,8.70
2013,02,23,15,16,8.60
2013,02,23,15,17,8.60
2013,02,23,15,18,8.60
2013,02,23,15,19,8.60
2013,02,23,15,20,8.60
2013,02,23,15,21,8.70
2013,02,23,15,22,8.70
2013,02,23,15,23,8.70
2013,02,23,15,24,8.80
2013,02,23,15,25,8.80
2013,02,23,15,26,8.80
2013,02,23,15,27,8.80
2013,02,23,15,28,8.80
2013,02,23,15,29,8.80
2013,02,23,15,30,8.70
2013,02,23,15,31,8.70
2013,02,23,15,32,8.70
2013,02,23,15,33,8.60
2013,02,23,15,34,8.60
2013,02,23,15,35,8.50
2013,02,23,15,36,8.50
2013,02,23,15,37,8.50
2013,02,23,15,38,8.40
2013,02,23,15,39,8.40
2013,02,23,15,40,8.40
2013,02,23,15,41,8.40
2013,02,23,15,42,8.40
2013,02,23,15,43,8.30
2013,02,23,15,44,8.30
2013,02,23,15,45,8.30
2013,02,23,15,46,8.30
2013,02,23,15,47,8.30
2013,02,23,15,48,8.30
2013,02,23,15,49,8.20
2013,02,23,15,50,8.20
2013,02,23,15,51,8.20
2013,02,23,15,52,8.20
2013,02,23,15,53,8.20
2013,02,23,15,54,8.20
2013,02,23,15,55,8.20
2013,02,23,15,56,8.20
2013,02,23,15,57,8.20
2013,02,23,15,58,8.20
2013,02,23,15,59,8.20
2013,02,23,16,00,8.20
2013,02,23,16,01,8.10
2013,02,23,16,02,8.10
2013,02,23,16,03,8.10
2013,02,23,16,04,8.10
2013,02,23,16,05,8.10
2013,02,23,16,06,8.10
2013,02,23,16,07,8.10
2013,02,23,16,08,8.10
2013,02,23,16,09,8.10
2013,02,23,16,10,8.10
2013,02,23,16,11,8.10
2013,02,23,16,12,8.10
2013,02,23,16,13,8.10
2013,02,23,16,14,8.10
2013,02,23,16,15,8.10
2013,02,23,16,16,8.10
2013,02,23,16,17,8.10
2013,02,23,16,18,8.10
2013,02,23,16,19,8.10
2013,02,23,16,20,8.00
2013,02,23,16,21,8.00
2013,02,23,16,22,8.00
2013,02,23,16,23,8.00
2013,02,23,16,24,8.00
2013,02,23,16,25,8.00
2013,02,23,16,26,8.00
2013,02,23,16,27,8.00
2013,02,23,16,28,8.00
2013,02,23,16,29,8.00
2013,02,23,16,30,8.00
2013,02,23,16,31,8.00
2013,02,23,16,32,8.00
2013,02,23,16,33,8.00
2013,02,23,16,34,8.00
2013,02,23,16,35,8.00
2013,02,23,16,36,8.00
2013,02,23,16,37,8.00
2013,02,23,16,38,8.00
2013,02,23,16,39,8.00
2013,02,23,16,40,8.00
2013,02,23,16,41,8.00
2013,02,23,16,42,8.00
2013,02,23,16,43,8.00
2013,02,23,16,44,8.10
2013,02,23,16,45,8.00
2013,02,23,16,46,8.00
2013,02,23,16,47,8.00
2013,02,23,16,48,8.00
2013,02,23,16,49,8.00
2013,02,23,16,50,8.00
2013,02,23,16,51,7.90
2013,02,23,16,52,7.90
2013,02,23,16,53,7.90
2013,02,23,16,54,7.90
2013,02,23,16,55,7.90
2013,02,23,16,56,7.80
2013,02,23,16,57,7.80
2013,02,23,16,58,7.80
2013,02,23,16,59,7.80
2013,02,23,17,00,7.80
2013,02,23,17,01,7.80
2013,02,23,17,02,7.80
2013,02,23,17,03,7.80
2013,02,23,17,04,7.80
2013,02,23,17,05,7.80
2013,02,23,17,06,7.80
2013,02,23,17,07,7.70
2013,02,23,17,08,7.70
2013,02,23,17,09,7.70
2013,02,23,17,10,7.70
2013,02,23,17,11,7.70
2013,02,23,17,12,7.70
2013,02,23,17,13,7.70
2013,02,23,17,14,7.70
2013,02,23,17,15,7.70
2013,02,23,17,16,7.60
2013,02,23,17,17,7.60
2013,02,23,17,18,7.60
2013,02,23,17,19,7.60
2013,02,23,17,20,7.60
2013,02,23,17,21,7.60
2013,02,23,17,22,7.60
2013,02,23,17,23,7.60
2013,02,23,17,24,7.60
2013,02,23,17,25,7.60
2013,02,23,17,26,7.50
2013,02,23,17,27,7.50
2013,02,23,17,28,7.50
2013,02,23,17,29,7.50
2013,02,23,17,30,7.50
2013,02,23,17,31,7.50
2013,02,23,17,32,7.50
2013,02,23,17,33,7.50
2013,02,23,17,34,7.50
2013,02,23,17,35,7.50
2013,02,23,17,36,7.50
2013,02,23,17,37,7.40
2013,02,23,17,38,7.50
2013,02,23,17,39,7.40
2013,02,23,17,40,7.40
2013,02,23,17,41,7.40
2013,02,23,17,42,7.40
2013,02,23,17,43,7.40
2013,02,23,17,44,7.40
2013,02,23,17,45,7.40
2013,02,23,17,46,7.40
2013,02,23,17,47,7.40
2013,02,23,17,48,7.40
2013,02,23,17,49,7.40
2013,02,23,17,50,7.30
2013,02,23,17,51,7.30
2013,02,23,17,52,7.30
2013,02,23,17,53,7.20
2013,02,23,17,54,7.20
2013,02,23,17,55,7.20
2013,02,23,17,56,7.10
2013,02,23,17,57,7.10
2013,02,23,17,58,7.10
2013,02,23,17,59,7.10
2013,02,23,18,00,7.00
2013,02,23,18,01,7.00
2013,02,23,18,02,7.00
2013,02,23,18,03,7.00
2013,02,23,18,04,6.90
2013,02,23,18,05,6.90
2013,02,23,18,06,6.90